EW5961 Merida MX current weather conditions

sailwx.info

Wind from 165

Air temperature 35.6° C
Dewpoint 24.8° C

Last reported at 2019-Oct-21 20:00 UTC.
Time now 2019-Oct-21 21:11 UTC

Location: N 20°56' W 089°40'.
View on Google Maps.

See reports from other nearby stations

  
Tides and Currents Weather Stations Pressure Air Temp Water Temp Dewpoint Dewpoint Depression Visibility Wind Speed Wind Dir Waves Ship Positions
date/time (UTC)wind fromknots sea level pressurealtimeterstation pressurevisibilityair tempwater tempwave heightnotes
2019-Oct-21 20:00 165 35.6
2019-Oct-21 19:45 151 35.0
2019-Oct-21 19:30 167 34.4
2019-Oct-21 19:15 154 34.4
2019-Oct-21 19:00 171 35.0
2019-Oct-21 18:45 112 35.0
2019-Oct-21 18:30 124 35.0
2019-Oct-21 18:15 154 34.4
2019-Oct-21 18:00 180 33.9
2019-Oct-21 17:45 147 33.9
2019-Oct-21 17:16 153 33.3
2019-Oct-21 17:03 138 32.8
2019-Oct-21 16:46 169 32.8
2019-Oct-21 16:31 171 32.2
2019-Oct-21 16:16 146 32.2
2019-Oct-21 16:01 155 32.2
2019-Oct-21 15:45 163 31.7
2019-Oct-21 15:31 161 30.6
2019-Oct-21 15:16 174 30.6
2019-Oct-21 15:01 127 30.6
2019-Oct-21 14:46 131 30.0
2019-Oct-21 14:15 130 28.9
2019-Oct-21 14:00 164 27.8
2019-Oct-21 13:45 148 27.2
2019-Oct-21 13:30 178 26.1
2019-Oct-21 13:15 138 25.6
2019-Oct-21 13:00 134 25.0
2019-Oct-21 12:45 154 25.0
2019-Oct-21 12:33 157 24.4
2019-Oct-21 12:18 136 24.4
2019-Oct-21 12:02 143 23.9
2019-Oct-21 11:47 141 23.9
2019-Oct-21 11:31 138 23.9
2019-Oct-21 11:17 139 23.9
2019-Oct-21 11:02 146 24.4
2019-Oct-21 10:47 139 24.4
2019-Oct-21 10:31 149 24.4
2019-Oct-21 10:19 128 24.4
2019-Oct-21 10:01 138 24.4
2019-Oct-21 09:47 142 24.4
2019-Oct-21 09:31 128 24.4
2019-Oct-21 09:16 132 24.4
2019-Oct-21 09:01 126 25.0
2019-Oct-21 08:46 123 25.0
2019-Oct-21 08:31 136 25.0
2019-Oct-21 08:16 145 25.0
2019-Oct-21 08:01 146 25.0
2019-Oct-21 07:46 124 25.0
2019-Oct-21 07:31 135 25.6
2019-Oct-21 06:45 132 25.6
2019-Oct-21 06:30 130 26.1
2019-Oct-21 06:15 140 26.1
2019-Oct-21 06:00 140 26.1
2019-Oct-21 05:45 132 26.1
2019-Oct-21 05:30 144 26.7
2019-Oct-21 05:15 128 26.7
2019-Oct-21 05:00 135 26.7
2019-Oct-21 04:45 143 27.2
2019-Oct-21 04:30 134 27.2
2019-Oct-21 04:15 134 27.2
2019-Oct-21 04:00 115 27.8
2019-Oct-21 03:45 132 27.8
2019-Oct-21 03:30 127 28.3
2019-Oct-21 03:15 115 28.9
2019-Oct-21 03:00 125 28.9
2019-Oct-21 02:45 117 29.4
2019-Oct-21 02:30 122 30.0
2019-Oct-21 02:15 131 30.0
2019-Oct-21 02:00 115 30.6
2019-Oct-21 01:46 105 30.6
2019-Oct-21 01:32 103 30.6
2019-Oct-21 01:16 103 31.1
2019-Oct-21 00:48 094 31.1
2019-Oct-21 00:32 090 31.7
2019-Oct-21 00:17 087 31.7
2019-Oct-21 00:02 097 32.2
2019-Oct-20 23:46 107 32.8
2019-Oct-20 23:32 120 32.8
2019-Oct-20 23:18 134 33.3
2019-Oct-20 23:01 163 33.9
2019-Oct-20 22:47 155 33.9
2019-Oct-20 22:32 121 34.4
2019-Oct-20 22:16 154 34.4
2019-Oct-20 22:01 157 35.0
2019-Oct-20 21:47 165 35.0
2019-Oct-20 21:32 157 35.0
2019-Oct-20 21:17 130 35.0
2019-Oct-20 21:02 161 35.0
2019-Oct-20 20:47 138 35.6
2019-Oct-20 20:31 150 35.6
2019-Oct-20 20:17 143 35.0
2019-Oct-20 20:02 165 35.6
2019-Oct-20 19:46 147 35.6
2019-Oct-20 19:31 164 35.6
2019-Oct-20 19:16 146 35.0
2019-Oct-20 18:45 115 34.4
2019-Oct-20 18:30 150 35.0
2019-Oct-20 18:15 117 34.4
2019-Oct-20 18:00 159 33.9
2019-Oct-20 17:32 126 33.3
2019-Oct-20 17:16 180 33.3
2019-Oct-20 17:01 182 32.8
2019-Oct-20 16:46 140 32.2
2019-Oct-20 16:32 158 32.2
2019-Oct-20 16:16 161 31.7
2019-Oct-20 16:02 180 31.1
2019-Oct-20 15:46 166 30.6
2019-Oct-20 15:31 159 30.0
2019-Oct-20 15:16 157 29.4
2019-Oct-20 15:00 159 28.9
2019-Oct-20 14:46 156 28.9
2019-Oct-20 14:30 143 28.3
2019-Oct-20 14:15 138 27.8
2019-Oct-20 14:00 151 27.2
2019-Oct-20 13:45 143 27.2
2019-Oct-20 13:30 165 27.2
2019-Oct-20 13:15 140 26.7
2019-Oct-20 12:45 121 26.1
2019-Oct-20 12:30 113 25.6
2019-Oct-20 12:15 116 25.6
2019-Oct-20 12:02 123 25.6
2019-Oct-20 11:47 126 25.6
2019-Oct-20 11:16 121 25.6
2019-Oct-20 11:02 123 25.6
2019-Oct-20 10:46 114 26.1
2019-Oct-20 10:34 127 26.1
2019-Oct-20 10:16 128 26.1
2019-Oct-20 10:02 136 26.1
2019-Oct-20 09:48 111 26.1
2019-Oct-20 09:32 128 26.1
2019-Oct-20 09:16 114 26.1
2019-Oct-20 09:01 114 26.1
2019-Oct-20 08:46 116 26.1
2019-Oct-20 08:31 123 26.1
2019-Oct-20 08:16 099 26.1
2019-Oct-20 08:03 099 26.1
2019-Oct-20 07:46 101 26.1
2019-Oct-20 07:31 081 26.1
2019-Oct-20 07:15 098 26.7
2019-Oct-20 06:46 105 26.7
2019-Oct-20 06:30 108 26.7
2019-Oct-20 06:15 107 26.7
2019-Oct-20 06:01 113 27.2
2019-Oct-20 05:46 105 27.2
2019-Oct-20 05:30 111 27.2
2019-Oct-20 05:15 096 27.8
2019-Oct-20 05:00 115 27.8
2019-Oct-20 04:45 078 28.3
2019-Oct-20 04:30 059 28.3
2019-Oct-20 04:00 032 28.3
2019-Oct-20 03:45 053 28.3
2019-Oct-20 03:30 065 28.3
2019-Oct-20 03:15 036 28.9
2019-Oct-20 03:00 070 28.9
2019-Oct-20 02:45 041 28.9
2019-Oct-20 02:30 033 28.9
2019-Oct-20 02:15 055 28.9
2019-Oct-20 02:02 051 28.9
2019-Oct-20 01:47 032 28.9
2019-Oct-20 01:31 035 28.9
2019-Oct-20 01:16 025 28.9
2019-Oct-20 00:46 022 28.9
2019-Oct-20 00:30 033 28.9
2019-Oct-20 00:15 005 28.9
2019-Oct-20 00:00 024 28.9
2019-Oct-19 23:47 013 29.4
2019-Oct-19 23:31 027 29.4
2019-Oct-19 23:16 346 29.4
2019-Oct-19 22:46 360 29.4
2019-Oct-19 22:31 331 30.0
2019-Oct-19 22:16 360 30.0
2019-Oct-19 22:00 343 30.6
2019-Oct-19 21:46 355 31.7
2019-Oct-19 21:30 017 32.8
2019-Oct-19 21:15 277 35.6
2019-Oct-19 21:00 229 36.1